Wind_Speed
10 10 10 9 9 8 7 8 9 8 9 9 9 10 10 11 13 13 14 13 12 12 14 13 13 14 15 15 15 15 15 15 16 17 18 17 16 16 16 16 15 14 14 15
9 10 10 10 10 9 7 7 8 8 9 10 10 11 10 12 13 12 13 13 12 12 13 14 13 14 15 15 16 16 16 15 15 15 16 16 15 15 16 15 14 13 13 14
9 9 9 9 8 8 7 7 8 9 9 10 12 10 9 9 10 11 11 11 11 12 13 14 14 14 15 15 15 15 16 17 16 16 16 16 16 15 15 14 14 13 13 14
8 7 7 7 7 7 7 7 9 10 10 11 10 11 9 9 8 8 9 10 11 12 13 13 13 14 14 15 15 15 15 15 16 16 16 16 16 16 15 14 13 13 13 14
8 7 7 7 7 8 8 8 9 10 11 11 10 10 8 8 7 8 9 11 12 12 13 13 13 14 14 14 15 14 15 15 15 15 16 15 15 14 14 13 13 13 14 14
7 6 6 6 7 8 8 8 10 11 11 10 8 9 8 8 8 9 11 12 12 12 13 13 13 13 14 13 13 13 14 14 14 15 15 14 15 14 14 13 13 13 13 14
7 7 8 7 8 9 10 10 10 11 10 9 8 9 8 8 9 10 11 12 13 12 13 13 13 13 13 12 12 13 14 15 15 15 15 15 14 14 14 13 13 14 14 13
8 9 10 10 9 8 10 10 10 11 11 10 10 10 9 9 10 10 11 12 13 13 12 12 12 13 12 12 12 14 14 15 16 16 16 15 14 14 13 13 13 13 13 13
9 9 9 10 9 10 11 10 11 12 12 11 10 10 11 10 11 11 11 12 13 13 12 12 12 12 11 12 13 14 14 16 16 16 16 16 14 13 13 13 14 14 14 14
10 10 10 10 10 10 12 12 11 12 13 12 12 13 12 11 12 12 11 12 12 12 12 12 12 12 12 13 13 14 14 15 16 16 16 16 15 14 13 14 14 15 15 14
11 11 11 12 12 11 12 13 14 15 15 15 14 13 13 13 12 12 12 12 13 13 13 13 13 12 13 14 14 14 14 15 16 16 16 16 15 15 15 15 15 15 15 15
14 13 13 12 11 12 13 14 15 15 16 15 16 14 14 13 14 13 13 13 14 14 13 14 14 14 14 15 15 14 14 15 15 16 16 16 17 16 16 16 15 15 15 15
14 14 14 14 14 14 14 15 16 17 17 16 16 14 14 14 14 14 15 15 15 15 14 14 14 14 15 15 15 15 15 15 15 16 17 17 17 17 16 16 16 16 16 16
14 15 15 15 15 15 15 16 16 17 18 18 17 16 16 16 15 16 16 16 16 16 15 14 14 14 15 15 15 15 16 16 16 17 17 18 18 17 16 16 16 16 16 17
17 16 16 16 16 17 18 17 17 17 17 17 17 17 17 16 16 16 16 16 16 16 15 15 15 15 16 15 15 15 16 17 17 18 18 19 19 18 17 17 17 17 17 17
18 18 18 17 17 17 18 18 18 18 18 18 17 17 18 17 17 16 16 16 16 16 16 17 16 16 16 16 16 16 17 17 18 18 19 20 20 19 18 18 18 18 18 18
19 18 19 18 17 18 18 18 19 19 18 18 17 17 18 17 18 19 18 18 18 17 17 18 17 16 16 17 17 17 17 18 18 19 20 20 19 19 19 19 18 18 17 17
18 18 18 18 17 19 17 18 19 19 19 19 19 19 18 18 18 19 19 19 20 19 19 19 18 17 17 18 18 18 18 18 19 19 19 19 19 19 19 18 18 17 17 18
19 18 18 18 19 18 16 17 17 17 18 19 18 18 18 17 17 18 19 20 21 20 19 18 18 19 18 18 18 19 19 19 19 19 19 20 19 19 18 18 18 18 18 18
20 19 19 19 19 19 17 15 16 17 18 17 17 17 17 17 18 19 19 19 19 19 18 18 18 19 19 19 18 18 19 19 18 18 19 19 19 19 19 18 18 18 18 18
21 20 20 20 20 20 19 17 17 17 17 17 17 17 18 18 18 19 19 19 19 19 18 18 18 18 18 18 18 19 19 19 19 19 19 19 19 19 19 19 19 19 19 19
21 20 19 20 20 20 18 18 18 18 17 18 18 17 17 18 19 19 19 19 19 19 18 18 18 18 18 18 19 19 19 20 20 19 19 19 18 19 19 20 19 19 19 19
21 21 20 20 20 20 19 18 18 18 18 18 17 16 17 18 19 19 19 18 18 18 17 17 18 19 19 19 19 19 19 19 19 19 19 18 19 19 19 19 19 19 19 19
23 22 22 22 22 22 22 21 19 19 19 18 18 18 17 18 19 20 19 19 19 19 18 18 19 19 20 20 20 20 19 19 19 19 19 19 20 20 19 19 19 19 19 19
24 23 24 24 24 24 23 22 21 20 19 19 20 19 19 19 19 20 21 21 21 21 20 20 20 19 19 20 20 20 19 19 19 19 19 19 20 20 20 20 20 20 20 19
25 25 25 25 25 25 25 24 23 22 21 21 21 21 21 21 21 21 21 21 22 21 21 21 21 20 20 20 20 20 19 19 19 20 20 21 21 22 21 21 21 20 20 19
Wind_Direction
216 219 216 216 227 226 235 263 271 271 275 284 289 288 291 295 297 299 306 312 317 313 314 313 309 310 308 306 307 308 309 306 305 305 307 304 303 303 304 303 300 295 286 278
220 220 221 222 225 226 237 268 279 280 280 285 287 288 293 295 299 302 307 313 321 316 312 314 313 311 312 311 312 312 312 313 315 311 310 309 306 304 306 306 301 298 291 282
223 217 216 218 222 226 246 273 285 292 287 289 291 294 305 300 302 307 309 314 320 314 313 316 319 314 314 312 310 314 317 317 318 318 318 315 310 307 308 305 301 301 297 291
215 211 215 222 231 244 259 281 287 288 287 298 307 306 314 314 308 312 316 315 311 312 313 317 322 320 317 316 313 315 316 316 318 319 320 320 315 312 310 304 302 300 298 293
206 208 213 220 239 252 270 277 283 285 283 285 291 301 316 311 308 313 313 313 314 315 315 320 324 323 320 318 315 315 316 315 317 320 319 319 319 318 316 311 307 302 298 293
213 221 228 230 240 254 259 262 271 277 278 277 287 293 309 318 316 317 313 312 315 318 325 330 326 324 321 319 318 321 319 318 318 320 324 323 320 318 317 316 312 308 305 303
219 227 232 238 245 241 248 258 267 268 270 275 282 288 305 320 317 314 318 316 314 316 323 329 328 324 323 321 320 320 321 320 321 321 322 322 319 317 317 316 312 309 307 303
229 233 238 240 248 249 250 261 267 269 268 271 278 288 301 312 313 314 317 319 320 320 322 324 329 330 327 324 324 323 322 322 322 322 321 320 316 314 314 316 314 312 310 305
233 232 237 239 249 252 257 260 263 269 271 276 276 289 296 305 310 312 317 320 324 327 326 325 326 328 328 326 328 329 327 324 324 325 325 323 320 317 316 317 319 316 311 306
249 247 245 245 249 250 254 256 260 268 273 279 284 288 294 303 306 312 314 316 321 325 326 322 322 322 324 327 328 328 329 329 329 328 327 326 320 315 312 315 317 315 312 307
249 249 251 253 254 256 258 261 264 268 273 278 285 290 296 299 304 307 309 311 315 317 316 316 316 317 321 323 325 326 329 331 333 333 332 330 328 321 315 314 312 311 310 306
251 253 254 257 260 261 259 262 266 271 273 275 280 290 296 295 300 303 304 305 310 312 311 311 312 313 317 320 321 323 328 330 331 332 332 332 330 325 318 313 310 309 310 308
254 256 257 255 254 256 257 261 267 270 273 276 278 286 293 295 297 298 298 301 303 304 306 309 309 312 315 317 318 319 322 326 329 330 330 329 328 324 320 315 311 308 306 307
251 254 258 260 262 262 261 262 266 268 270 275 277 285 289 292 295 295 298 301 303 298 298 301 305 308 311 312 312 313 316 321 324 326 327 327 326 323 320 316 312 308 306 306
250 256 257 259 259 259 264 267 269 272 276 278 281 284 286 290 293 295 295 295 295 295 293 296 301 305 304 307 309 310 314 316 318 322 324 325 324 322 320 318 315 312 308 307
253 260 260 259 259 262 262 265 268 270 274 277 278 277 281 287 291 294 293 294 293 297 296 295 297 301 301 304 306 309 310 313 316 318 320 321 322 321 319 318 315 312 308 307
256 259 262 263 261 263 263 267 269 270 271 274 275 277 280 286 290 292 292 293 295 294 294 297 298 301 301 300 301 304 307 311 314 317 318 319 320 320 320 320 318 315 313 312
256 255 259 262 264 263 265 265 266 268 272 274 277 278 280 283 285 286 286 289 294 295 295 296 295 297 298 298 299 301 305 309 313 316 318 319 318 319 319 319 318 316 314 315
254 255 257 261 265 267 264 264 267 268 271 275 277 279 280 279 281 283 285 287 290 291 292 290 291 295 296 299 300 300 305 308 312 315 316 317 317 317 317 318 318 317 316 316
255 257 260 264 267 269 271 269 271 272 270 274 277 279 280 280 280 282 283 286 287 290 290 292 293 294 296 298 300 301 304 307 310 313 314 315 316 317 317 317 318 320 319 317
253 257 260 265 270 272 271 270 272 272 273 274 277 279 280 279 281 282 284 286 287 288 289 292 292 294 295 295 297 300 303 305 306 308 311 313 315 317 319 319 319 319 318 317
254 257 260 265 268 270 272 270 271 274 275 276 278 278 277 278 280 280 282 285 285 287 287 289 292 293 295 296 298 298 300 302 303 306 309 312 315 317 320 321 321 320 320 319
251 254 259 263 266 269 272 272 272 272 276 280 283 284 282 281 279 278 281 285 287 287 286 287 289 291 294 296 297 298 299 301 303 305 309 313 315 317 318 320 322 321 321 322
250 254 258 260 263 268 273 274 271 272 277 280 282 285 286 286 283 282 284 286 289 287 287 288 288 291 294 295 295 296 299 301 302 304 306 310 313 315 317 319 319 319 318 318
251 254 255 258 261 265 270 271 271 273 275 276 279 283 284 285 286 286 285 283 284 284 287 288 287 289 292 293 293 294 295 297 299 301 304 307 309 310 312 313 314 313 314 313
253 253 253 255 259 262 266 270 271 273 274 275 278 280 282 285 288 289 286 284 284 281 282 283 284 283 286 289 291 291 293 295 298 299 301 304 306 306 307 308 309 311 310 310
Height
5853 5855 5855 5856 5857 5858 5858 5858 5858 5859 5858 5858 5857 5857 5856 5856 5854 5853 5851 5850 5848 5847 5845 5844 5842 5840 5838 5837 5834 5832 5829 5827 5825 5822 5820 5817 5815 5813 5810 5808 5805 5803 5802 5802
5852 5853 5854 5854 5855 5856 5856 5856 5856 5857 5856 5856 5855 5854 5853 5852 5851 5850 5848 5847 5845 5844 5843 5842 5839 5837 5835 5833 5831 5829 5826 5823 5821 5818 5816 5813 5811 5809 5806 5804 5802 5800 5798 5797
5850 5852 5851 5852 5852 5854 5854 5855 5855 5854 5854 5853 5852 5851 5850 5849 5848 5847 5846 5844 5843 5842 5841 5839 5836 5834 5832 5830 5828 5826 5823 5820 5818 5815 5812 5809 5807 5804 5802 5800 5798 5796 5795 5794
5847 5849 5849 5850 5850 5851 5853 5853 5852 5852 5851 5851 5850 5849 5849 5847 5846 5845 5843 5842 5840 5839 5838 5836 5834 5831 5829 5827 5825 5823 5821 5818 5815 5812 5809 5806 5804 5801 5799 5796 5795 5793 5791 5790
5845 5846 5847 5848 5849 5849 5850 5850 5850 5850 5849 5849 5848 5847 5847 5845 5845 5844 5842 5840 5838 5837 5835 5833 5831 5829 5827 5824 5822 5820 5818 5815 5812 5809 5806 5803 5801 5798 5795 5793 5791 5789 5788 5786
5844 5845 5845 5846 5847 5848 5848 5848 5848 5847 5847 5847 5846 5845 5845 5843 5843 5842 5840 5838 5836 5834 5832 5830 5829 5827 5825 5822 5819 5817 5815 5813 5810 5807 5804 5801 5798 5795 5792 5790 5788 5786 5784 5782
5841 5843 5843 5844 5844 5845 5846 5846 5845 5845 5844 5844 5844 5843 5843 5842 5840 5839 5837 5836 5834 5831 5830 5828 5826 5824 5822 5820 5817 5815 5813 5810 5807 5804 5801 5799 5795 5792 5790 5787 5785 5782 5781 5779
5839 5841 5841 5842 5842 5842 5842 5843 5843 5842 5842 5842 5841 5840 5841 5840 5838 5836 5835 5833 5831 5829 5827 5825 5824 5822 5820 5818 5815 5813 5810 5807 5804 5801 5798 5796 5793 5790 5787 5785 5782 5780 5778 5775
5837 5838 5839 5839 5840 5841 5841 5840 5841 5840 5839 5839 5838 5838 5838 5837 5836 5834 5832 5830 5828 5827 5825 5823 5821 5820 5818 5815 5813 5810 5808 5805 5802 5798 5795 5792 5790 5787 5784 5782 5779 5777 5774 5772
5834 5835 5836 5837 5838 5838 5838 5839 5838 5837 5836 5835 5835 5835 5835 5834 5832 5830 5829 5827 5826 5824 5823 5821 5819 5817 5815 5813 5811 5808 5805 5802 5799 5796 5792 5789 5787 5784 5781 5779 5776 5773 5771 5769
5832 5833 5834 5835 5835 5835 5836 5836 5835 5834 5834 5833 5832 5833 5831 5830 5829 5827 5826 5825 5823 5821 5820 5819 5817 5814 5812 5810 5808 5805 5803 5800 5797 5793 5790 5787 5784 5781 5778 5775 5773 5770 5768 5765
5829 5830 5830 5831 5832 5832 5832 5832 5832 5831 5830 5829 5828 5831 5827 5826 5825 5824 5823 5822 5820 5818 5816 5815 5813 5812 5810 5808 5805 5803 5800 5798 5795 5791 5788 5784 5781 5778 5775 5772 5769 5766 5764 5762
5825 5825 5826 5828 5830 5829 5828 5828 5827 5827 5827 5826 5825 5827 5824 5823 5822 5821 5819 5818 5816 5815 5813 5811 5810 5808 5806 5804 5802 5800 5798 5795 5792 5789 5785 5782 5778 5774 5771 5768 5765 5762 5760 5758
5821 5821 5823 5824 5824 5823 5824 5824 5823 5823 5822 5821 5821 5821 5820 5819 5818 5817 5815 5813 5812 5811 5809 5808 5806 5805 5803 5801 5799 5797 5794 5792 5789 5785 5782 5778 5774 5771 5767 5764 5761 5758 5756 5753
5816 5817 5818 5818 5818 5818 5819 5819 5819 5818 5818 5817 5816 5816 5815 5814 5814 5812 5811 5809 5808 5807 5805 5804 5802 5801 5799 5797 5795 5793 5791 5788 5785 5782 5778 5775 5771 5767 5763 5760 5757 5754 5752 5749
5811 5812 5812 5813 5813 5813 5813 5813 5814 5813 5813 5812 5812 5811 5811 5810 5808 5808 5807 5806 5804 5802 5801 5800 5798 5797 5795 5793 5791 5789 5786 5783 5780 5777 5774 5770 5766 5763 5759 5756 5753 5750 5747 5745
5806 5807 5807 5808 5808 5808 5808 5808 5808 5808 5808 5808 5807 5807 5806 5805 5804 5803 5802 5800 5799 5798 5796 5795 5793 5792 5791 5789 5787 5784 5782 5779 5776 5773 5770 5766 5762 5758 5755 5752 5749 5746 5743 5741
5801 5802 5802 5802 5803 5803 5806 5803 5803 5803 5802 5802 5801 5801 5800 5800 5799 5798 5797 5796 5794 5793 5791 5790 5788 5787 5786 5784 5782 5779 5777 5774 5772 5768 5765 5762 5758 5755 5751 5748 5745 5742 5739 5736
5796 5797 5797 5797 5797 5797 5799 5798 5798 5797 5797 5797 5796 5796 5795 5794 5794 5793 5792 5791 5790 5788 5786 5784 5783 5782 5780 5779 5777 5774 5772 5770 5767 5764 5761 5758 5754 5751 5748 5744 5741 5738 5735 5732
5791 5791 5792 5792 5792 5792 5795 5794 5792 5793 5791 5791 5790 5790 5789 5789 5788 5788 5787 5786 5785 5783 5781 5780 5778 5776 5775 5773 5771 5769 5767 5765 5762 5759 5756 5753 5750 5747 5744 5740 5737 5734 5731 5728
5785 5785 5786 5786 5786 5786 5788 5788 5788 5788 5788 5786 5785 5785 5784 5784 5783 5782 5781 5780 5779 5778 5776 5775 5773 5771 5770 5768 5766 5764 5762 5760 5757 5755 5752 5749 5746 5743 5740 5736 5733 5730 5726 5723
5779 5779 5780 5780 5781 5783 5782 5782 5782 5782 5781 5781 5780 5780 5779 5778 5777 5776 5775 5774 5773 5772 5771 5769 5768 5766 5765 5763 5761 5759 5757 5755 5752 5750 5747 5744 5741 5739 5735 5732 5729 5725 5722 5719
5772 5774 5774 5775 5777 5776 5776 5776 5776 5775 5775 5775 5775 5774 5773 5772 5771 5770 5770 5769 5768 5766 5765 5764 5763 5761 5760 5758 5756 5754 5752 5750 5747 5745 5743 5740 5737 5734 5731 5728 5724 5721 5718 5715
5766 5767 5768 5768 5769 5769 5770 5769 5770 5769 5769 5769 5769 5768 5767 5767 5766 5765 5764 5763 5762 5761 5760 5758 5757 5755 5754 5752 5751 5749 5746 5744 5742 5740 5738 5735 5733 5730 5727 5724 5721 5718 5715 5712
5759 5760 5760 5761 5762 5762 5763 5763 5763 5763 5763 5763 5763 5762 5761 5761 5760 5759 5758 5757 5756 5755 5754 5752 5751 5750 5748 5747 5745 5743 5741 5739 5737 5735 5733 5731 5728 5726 5723 5720 5717 5714 5711 5707
5752 5753 5753 5754 5755 5756 5756 5756 5756 5756 5757 5756 5756 5756 5755 5754 5753 5752 5751 5750 5749 5748 5747 5746 5745 5744 5742 5741 5739 5737 5736 5734 5732 5731 5728 5726 5724 5721 5718 5715 5712 5709 5706 5703